Regional Weather Roundup
Issued by NWS

Home | Current Version | Previous Version | Text Only | Print | Product List | Glossary Off
Versions: 1 2 3 4 5 6 7 8 9 10 11 12 13 14 15 16 17 18 19 20 21 22 23 24 25 26 27 28 29 30 31 32 33 34 35 36 37 38 39 40 41 42 43 44 45 46 47 48 49 50

000
ASUS43 KOAX 091810
RWRNE

WEATHER ROUNDUP FOR NEBRASKA
NATIONAL WEATHER SERVICE OMAHA NE
1200 PM CST FRI DEC 09 2016

NOTES: SATELLITE DATA IS BEING USED TO AUGMENT CLOUD COVER ABOVE
       12000 FEET.
       "FAIR" INDICATES FEW OR NO CLOUDS BELOW 12,000 FEET WITH NO
       SIGNIFICANT WEATHER AND/OR OBSTRUCTIONS TO VISIBILITY.

  * THESE STATIONS DO NOT REPORT WEATHER SUCH AS RAIN...SNOW OR FOG.

NEZ001>004-019>022-054>056-091900-
NEBRASKA PANHANDLE

CITY           SKY/WX    TMP DP  RH WIND       PRES   REMARKS
SCOTTSBLUFF    SUNNY     23   9  55 N6        30.18S WCI  16
6HR MIN TEMP:  15; 6HR MAX TEMP:  24;

ALLIANCE       SUNNY     21   8  57 CALM      30.18R
6HR MIN TEMP:  10; 6HR MAX TEMP:  21;

CHADRON        CLOUDY     6  -2  69 N5        30.32S WCI  -3
6HR MIN TEMP:   3; 6HR MAX TEMP:   7;

KIMBALL        SUNNY     30  20  67 NW6       30.11S WCI  24
SIDNEY         SUNNY     22  11  62 W6        30.15S WCI  14
6HR MIN TEMP:  10; 6HR MAX TEMP:  22;

$$

NEZ057>060-069>072-079>082-091900-
SOUTHWEST NEBRASKA

CITY           SKY/WX    TMP DP  RH WIND       PRES   REMARKS
NORTH PLATTE   PTSUNNY   22   9  57 S15       30.29F WCI   9
6HR MIN TEMP:   7; 6HR MAX TEMP:  22;

IMPERIAL       CLOUDY    21  12  68 S12       30.24F WCI   9
6HR MIN TEMP:  10; 6HR MAX TEMP:  21;

LEXINGTON      CLOUDY    22  10  59 S15       30.35F WCI   9
MCCOOK         CLOUDY    24  12  60 S12       30.32F WCI  13
6HR MIN TEMP:   9; 6HR MAX TEMP:  24;

OGALLALA       SUNNY     24  13  64 S13G18    30.23F WCI  12
$$

NEZ005>010-023>029-035>040-094-091900-
NORTH CENTRAL NEBRASKA

CITY           SKY/WX    TMP DP  RH WIND       PRES   REMARKS
VALENTINE      CLOUDY    15   7  70 SE14      30.34F WCI   0
6HR MIN TEMP:   3; 6HR MAX TEMP:  15; 6HR PCP: TRACE;

AINSWORTH      CLOUDY    16   7  68 SE10      30.34F WCI   3
BROKEN BOW     CLOUDY    18   9  68 S14G23    30.34F WCI   4
6HR MIN TEMP:   7; 6HR MAX TEMP:  18;

O`NEILL        FLURRIES  15   8  74 SE9       30.44F WCI   3
THEDFORD       CLOUDY    22   8  54 S15G21    30.28F WCI   8
$$

NEZ041-046>049-061>064-073>077-083>087-091900-
SOUTH CENTRAL NEBRASKA

CITY           SKY/WX    TMP DP  RH WIND       PRES   REMARKS
GRAND ISLAND   CLOUDY    18  10  71 SE10      30.46F WCI   6
6HR MIN TEMP:   6; 6HR MAX TEMP:  18;

AURORA         CLOUDY    19  10  68 SE13      30.47F WCI   6
HASTINGS       CLOUDY    20  11  68 S14G22    30.45F WCI   7
6HR MIN TEMP:  11; 6HR MAX TEMP:  20;

HEBRON         CLOUDY    22  11  65 S13       30.51F WCI   9
HOLDREGE       CLOUDY    20  10  67 SE15G22   30.38F WCI   6
KEARNEY *      CLOUDY    19   9  63 S15       30.41F WCI   5
YORK           CLOUDY    18  10  73 SE9       30.50F WCI   6
$$

NEZ011>018-030>034-042>045-091900-
NORTHEAST NEBRASKA

CITY           SKY/WX    TMP DP  RH WIND       PRES   REMARKS
NORFOLK        CLOUDY    12   6  77 SE8       30.51F WCI   0
6HR MIN TEMP:   2; 6HR MAX TEMP:  12;

ALBION         CLOUDY    14   8  76 S8        30.48F WCI   3
BLAIR          CLOUDY    17  10  75 S3        30.55F
FREMONT        CLOUDY    15  10  78 SE5       30.56F WCI   8
TEKAMAH        PTSUNNY   14   6  70 CALM      30.58F
6HR MIN TEMP:   4; 6HR MAX TEMP:  14;

WAYNE          CLOUDY    12   6  76 CALM      30.54F
$$

NEZ050>053-065>068-078-088>093-091900-
SOUTHEAST NEBRASKA

CITY           SKY/WX    TMP DP  RH WIND       PRES   REMARKS
LINCOLN        CLOUDY    19  10  68 S5        30.57F WCI  12
6HR MIN TEMP:   3; 6HR MAX TEMP:  19;

OMAHA EPPLEY   CLOUDY    18   8  65 S6        30.59F WCI  10
6HR MIN TEMP:   7; 6HR MAX TEMP:  18;

BEATRICE       CLOUDY    22  13  69 SE8       30.54F WCI  12
FALLS CITY     CLOUDY    19  14  81 SE3       30.60F
6HR MIN TEMP:   6; 6HR MAX TEMP:  19;

NEBRASKA CITY  CLOUDY    20  10  65 S8        30.57F WCI  10
PLATTSMOUTH    CLOUDY    19   9  65 S5        30.57F WCI  12
$$

NEZ044-045-051>053-067-091900-
OMAHA AREA

CITY           SKY/WX    TMP DP  RH WIND       PRES   REMARKS
OMAHA EPPLEY   CLOUDY    18   8  65 S6        30.59F WCI  10
6HR MIN TEMP:   7; 6HR MAX TEMP:  18;

BLAIR          CLOUDY    17  10  75 S3        30.55F
FREMONT        CLOUDY    15  10  78 SE5       30.56F WCI   8
MILLARD        CLOUDY    19  11  70 CALM      30.58F
OFFUTT AFB     CLOUDY    17  11  75 SE3       30.58F
PLATTSMOUTH    CLOUDY    19   9  65 S5        30.57F WCI  12
WAHOO          CLOUDY    16   9  75 SE5       30.56F WCI   8
$$




USA.gov is the U.S. government's official web portal to all federal, state and local government web resources and services.